User: anonymous   Login
Location: Unspecified
(0.0000°N, 0.0000°E)
Time: 09:18:58
(UTC+00:00)
Language:

UWE-2 - Orbit

View from above orbital plane
View from above orbital plane
View from above satellite
View from above satellite

Ground track
Ground track

The orbit data is extracted from the following two-line orbital elements,

1 35934U 09051D   17086.90805042 +.00000192 +00000-0 +54979-4 0  9999
2 35934 098.4764 222.8007 0007279 148.6501 211.5131 14.55628010398438
Epoch (UTC): 27 March 2017 21:47:35
Eccentricity: 0.0007279
inclination: 98.4764°
perigee height: 702 km
apogee height: 712 km
right ascension of ascending node: 222.8007°
argument of perigee: 148.6501°
revolutions per day: 14.55628010
mean anomaly at epoch: 211.5131°
orbit number at epoch: 39843

The dashed part of the orbit path shows where the satellite is in the earth's shadow,  

DLR